Location: Boleita
(10.4833°N, 66.8167°W)
Time: 13:26:21
(UTC+00:00)

Cosmos 2341 Rocket - Pass Details

Date: 03 August 2024
Orbit: 967 x 1004 km, 82.9° (Epoch: 15 September)

Event Time Altitude Azimuth Distance (km) Brightness Sun altitude
Rises 23:16:51 0° 171° (S) 3,682 6.7 -7.1°
Reaches altitude 10° 23:19:26 10° 166° (SSE) 2,740 6.0 -7.7°
Maximum altitude 23:25:29 50° 92° (E) 1,241 4.2 -9.1°
Drops below altitude 10° 23:31:34 10° 18° (NNE) 2,761 6.4 -10.5°
Sets 23:34:10 0° 13° (NNE) 3,714 7.1 -11.1°
